• MPC Preparation (Info)

  • MPEC 2014-N67 : 2014 NK52

    The following Minor Planet Electronic Circular may be linked-to from your own Web pages, but must not otherwise be redistributed electronically.

    A form allowing access to any MPEC is at the bottom of this page.


    Read MPEC 2014-N66 Read MPEC 2014-N68


    M.P.E.C. 2014-N67                                Issued 2014 July 10, 20:54 UT
    
         The Minor Planet Electronic Circulars contain information on unusual
             minor planets and routine data on comets.  They are published
       on behalf of Commission 20 of the International Astronomical Union by the
              Minor Planet Center, Smithsonian Astrophysical Observatory,
                              Cambridge, MA 02138, U.S.A.
    
                 Prepared using the Tamkin Foundation Computer Network
    
                                  MPC@CFA.HARVARD.EDU
                URL https://www.minorplanetcenter.net/    ISSN 1523-6714
    
                                       2014 NK52
    
    Observations:
         K14N52K* C2014 07 01.56191 21 43 58.170-08 05 47.76         22.2 wLEN067F51
         K14N52K  C2014 07 01.58615 21 43 47.973-08 06 36.15         21.7 wLEN067F51
         K14N52K  C2014 07 01.59829 21 43 42.851-08 07 00.55         21.3 wLEN067F51
         K14N52K KC2014 07 02.39410 21 38 18.33 -08 33 20.6          20.3 RoEN067291
         K14N52K KC2014 07 02.39897 21 38 16.31 -08 33 30.2          19.5 RoEN067291
         K14N52K KC2014 07 02.40387 21 38 14.30 -08 33 39.6                oEN067291
         K14N52K _C2014 07 02.50039421 37 35.522-08 36 43.78         20.2 RtEN067568
         K14N52K _C2014 07 02.50164721 37 35.007-08 36 46.26         20.1 RtEN067568
         K14N52K _C2014 07 02.50289921 37 34.482-08 36 48.71         20.2 RtEN067568
         K14N52K  C2014 07 07.52501 21 05 49.495-11 04 43.15         21.0 wLEN067F51
         K14N52K  C2014 07 07.53683 21 05 45.199-11 05 02.11         21.1 wLEN067F51
         K14N52K  C2014 07 07.54864 21 05 40.946-11 05 20.69         20.7 wLEN067F51
         K14N52K  C2014 07 07.56047 21 05 36.705-11 05 39.25         21.0 wLEN067F51
         K14N52K |C2014 07 10.28376 20 50 16.87 -12 12 52.5          21.2 VuEN067807
         K14N52K |C2014 07 10.29574 20 50 12.92 -12 13 09.4          21.1 VuEN067807
         K14N52K |C2014 07 10.30722 20 50 09.12 -12 13 25.2          21.2 VuEN067807
    
    Observer details:
    291 LPL/Spacewatch II.  Observer R. S. McMillan.  1.8-m f/2.7 reflector + CCD.
    568 Mauna Kea.  Observers R. J. Wainscoat, D. Woodworth.  Measurers M. Micheli,
        R. J. Wainscoat.  3.6-m Canada-France-Hawaii Telescope + CCD.
    807 Cerro Tololo.  Observers T. Linder, R. Holmes.  Measurers T. Linder,
        R. Holmes, C. Smith.  0.41-m f/11 Ritchey-Chretien + CCD.
    F51 Pan-STARRS 1, Haleakala.  Observers N. Primak, A. Schultz, T. Goggia,
        M. Willman.  1.8-m Ritchey-Chretien + CCD.
    
    Orbital elements:
    2014 NK52                                           PHA, Earth MOID = 0.0183 AU
    Epoch 2014 May 23.0 TT = JDT 2456800.5                  MPC
    M   6.19910              (2000.0)            P               Q
    n   0.28680462     Peri.  267.86835     -0.96296690     -0.26602667
    a   2.2772565      Node   256.70150     +0.26181294     -0.88375291
    e   0.8474752      Incl.    2.58370     +0.06441073     -0.38498132
    P   3.44           H   21.2           G   0.15           U   9
    Residuals in seconds of arc
    140701 F51  0.3-  0.2-    140702 568  0.2+  0.0     140707 F51  0.4+  0.2+
    140701 F51  0.2+  0.0     140702 568  0.3+  0.0     140710 807  0.1+  0.2-
    140701 F51  0.2+  0.0     140702 568  0.1+  0.0     140710 807  0.3+  0.5-
    140702 291  0.1-  0.2+    140707 F51  0.0   0.2+    140710 807  0.1+  0.4-
    140702 291  0.1-  0.1+    140707 F51  0.3-  0.0
    140702 291  0.1+  0.3+    140707 F51  0.1-  0.0
    
    Ephemeris:
    2014 NK52                a,e,i = 2.28, 0.85, 3                   q = 0.3473
    Date    TT    R. A. (2000) Decl.     Delta      r     Elong.  Phase     V
    2014 06 10    00 28 49.5 +06 02 40   0.3208  0.9536    69.9    91.7    21.9
    ...
    2014 06 25    22 31 45.8 -04 04 23   0.3295  1.1937   115.0    50.5    21.0
    ...
    2014 07 03    21 34 14.6 -08 52 35   0.3688  1.3127   137.6    31.5    21.0
    ...
    2014 07 09    20 57 20.8 -11 42 13   0.4150  1.3983   152.6    19.5    21.0
    2014 07 10    20 51 49.3 -12 06 20   0.4241  1.4123   155.0    17.7    21.0
    2014 07 11    20 46 28.8 -12 29 18   0.4335  1.4261   157.2    16.0    21.0
    ...
    2014 07 17    20 18 14.6 -14 25 07   0.4972  1.5078   169.4     7.1    21.1
    ...
    2014 07 25    19 49 59.7 -16 12 06   0.5997  1.6125   172.8     4.5    21.5
    ...
    2014 08 09    19 19 33.2 -18 03 55   0.8360  1.7973   152.5    15.1    22.9
    
    A. U. Tomatic                (C) Copyright 2014 MPC           M.P.E.C. 2014-N67
    

    Read MPEC 2014-N66 Read MPEC 2014-N68


    MPEC number:

    Enter an MPEC number in one of the following forms:

    • 1997-B01 (the full form)
    • J97B01 (the packed version of the full form)
    • B01 (the abbreviated form)